Location: Newark
(55.7083°N, 13.1992°E)
Time: 02:35:25
(UTC+00:00)

N. Korean satellite - Pass Details

Date: 28 January 2020
Orbit: 456 x 505 km, 97.2° (Epoch: 26 February)

Event Time Altitude Azimuth Distance (km) Brightness Sun altitude
Rises 05:56:37 0° 8° (N) 2,541 10.1 -10.1°
Reaches altitude 10° 05:58:47 10° 359° (N) 1,666 9.1 -9.8°
Maximum altitude 06:02:03 33° 294° (WNW) 831 7.2 -9.3°
Drops below altitude 10° 06:05:19 10° 229° (SW) 1,680 9.0 -8.9°
Sets 06:07:31 0° 219° (SW) 2,566 10.0 -8.6°
